This is the latest recevied weather packets stored in our database for station/object W0WC. If no packets are shown the sender has not sent any weather packets the latest 10 day(s).
| Time | Temp. | Humidity | Pressure | Rain* | Wind** | Luminosity | Snow |
|---|---|---|---|---|---|---|---|
| 1788643909 | 39.44° C | 31% | 1012.9 hPa | 0 mm | - | 408 W/m² | - |
| 1788643604 | 39.44° C | 31% | 1013 hPa | 0 mm | - | 422 W/m² | - |
| 1788643304 | 39.44° C | 31% | 1013.1 hPa | 0 mm | - | 440 W/m² | - |
| 1788642998 | 40° C | 32% | 1013.1 hPa | 0 mm | - | 464 W/m² | - |
| 1788642694 | 40° C | 31% | 1013.2 hPa | 0 mm | - | 493 W/m² | - |
| 1788642391 | 39.44° C | 33% | 1013.3 hPa | 0 mm | - | 511 W/m² | - |
| 1788642085 | 39.44° C | 32% | 1013.2 hPa | 0 mm | - | 520 W/m² | - |
| 1788641784 | 38.89° C | 33% | 1013.2 hPa | 0 mm | - | 520 W/m² | - |
| 1788641484 | 38.33° C | 34% | 1013.4 hPa | 0 mm | - | 524 W/m² | - |
| 1788641183 | 38.89° C | 34% | 1013.3 hPa | 0 mm | - | 538 W/m² | - |
| 1788640913 | 38.89° C | 33% | 1013.6 hPa | 0 mm | - | 553 W/m² | - |
| 1788640579 | 38.89° C | 34% | 1013.5 hPa | 0 mm | - | 557 W/m² | - |
| 1788640274 | 38.33° C | 34% | 1013.9 hPa | 0 mm | - | 569 W/m² | - |
| 1788639970 | 38.33° C | 33% | 1013.9 hPa | 0 mm | - | 589 W/m² | - |
| 1788639665 | 38.89° C | 33% | 1013.8 hPa | 0 mm | - | 176 W/m² | - |
| 1788639361 | 38.89° C | 33% | 1014.1 hPa | 0 mm | - | 503 W/m² | - |
| 1788639060 | 38.89° C | 33% | 1014.1 hPa | 0 mm | - | 620 W/m² | - |
| 1788638756 | 38.89° C | 33% | 1014 hPa | 0 mm | - | 174 W/m² | - |
| 1788638450 | 38.89° C | 34% | 1014.4 hPa | 0 mm | - | 635 W/m² | - |
| 1788638143 | 38.33° C | 33% | 1014.1 hPa | 0 mm | - | 658 W/m² | - |
| 1788637839 | 38.89° C | 34% | 1014.1 hPa | 0 mm | - | 672 W/m² | - |
| 1788637539 | 38.89° C | 34% | 1014.2 hPa | 0 mm | - | 664 W/m² | - |
| 1788637238 | 38.33° C | 34% | 1014.6 hPa | 0 mm | - | 673 W/m² | - |
| 1788636933 | 38.33° C | 35% | 1014.5 hPa | 0 mm | - | 662 W/m² | - |
| 1788636629 | 38.33° C | 35% | 1014.6 hPa | 0 mm | - | 677 W/m² | - |
* Rain latest hour (hover to see other rain measurements)
** Current wind speed in m/s (hover to see current wind gust speed)